Location: Arleux
(50.3632°N, 2.8721°E)
Time: 18:41:35
(UTC+00:00)

Cosmos 2082 Rocket - Pass Details

Date: 15 December 2019
Orbit: 834 x 852 km, 71.0° (Epoch: 26 January)

Event Time Altitude Azimuth Distance (km) Brightness Sun altitude
Exits shadow 04:39:23 12° 359° (N) 2,337 4.4 -27.7°
Maximum altitude 04:42:10 16° 31° (NNE) 2,058 4.5 -27.3°
Drops below altitude 10° 04:45:36 10° 68° (ENE) 2,457 5.4 -26.8°
Sets 04:49:03 0° 90° (E) 3,386 6.7 -26.2°
